Regional Weather Roundup
Issued by NWS

Home | Current Version | Previous Version | Graphics & Text | Print | Product List | Glossary On
Versions: 1 2 3 4 5 6 7 8 9 10 11 12 13 14 15 16 17 18 19 20 21 22 23 24 25 26 27 28 29 30 31 32 33 34 35 36 37 38 39 40 41 42 43 44 45 46 47 48 49 50
000
ASUS43 KLOT 301103
RWRIL

ILLINOIS REGIONAL WEATHER ROUNDUP
NATIONAL WEATHER SERVICE CHICAGO/ROMEOVILLE IL
600 AM CDT SUN APR 30 2017

NOTE: "FAIR" INDICATES FEW OR NO CLOUDS BELOW 12,000 FEET WITH NO
SIGNIFICANT WEATHER AND/OR OBSTRUCTIONS TO VISIBILITY.

* THESE STATIONS ARE NOT UNDER NWS QUALITY CONTROL. THEY ALSO MAY NOT
  REPORT WEATHER SUCH AS PRECIPITATION OR FOG.

ILZ001-002-007-009-015-016-024-301200-
NORTHWEST ILLINOIS

CITY           SKY/WX    TMP DP  RH WIND       PRES   REMARKS
MOLINE         CLOUDY    44  41  89 E24G31    29.82F
STERLING*      LGT RAIN  42  41  96 E17G25    29.88F
SAVANNA*       CLOUDY    43  40  89 NE17      29.89F
$$

ILZ003-004-008-010-011-017-018-301200-
NORTH CENTRAL ILLINOIS

CITY           SKY/WX    TMP DP  RH WIND       PRES   REMARKS
ROCKFORD       CLOUDY    42  39  89 NE17G24   29.93F
FREEPORT*      CLOUDY    40  39  93 NE16      29.94F
ROCHELLE*      LGT RAIN  41  40  97 NE20      29.91F
DE KALB*       RAIN      41  40  97 NE17      29.92F
PERU*          RAIN      42  41  96 NE13      29.88F
$$

ILZ005-006-012>014-019>023-301200-
NORTHEAST ILLINOIS

CITY           SKY/WX    TMP DP  RH WIND       PRES   REMARKS
CHICAGO-OHARE  DRIZZLE   42  41  96 NE14      29.92R
CHICAGO-MIDWAY LGT RAIN  44  43  96 NE9G20    29.92R FOG
AURORA         LGT RAIN  43  41  93 NE14      29.92R FOG
LANSING*       LGT RAIN  45  45 100 NE5       29.91R
JOLIET*        LGT RAIN  45  45  99 NE7       29.91R
WAUKEGAN       CLOUDY    40  40 100 NE16G23   29.94F FOG
DUPAGE AIRPORT LGT RAIN  42  42 100 NE12      29.92R FOG
KANKAKEE*      RAIN      47  47  98 CALM      29.88F
WHEELING       CLOUDY    41  41 100 NE10      29.95R FOG
MORRIS*        RAIN      44  43  96 CALM      29.90S
NORTHERLY ISL    N/A     43  42  97 N12         N/A
$$

LMZ740>746-301200-
SOUTHERN LAKE MICHIGAN

STATION/POSITION SKY/WX   TEMP    WIND        PRES    VSBY  WAVE
                          AIR SEA DIR/SP/G                  HT/PER
                          (F)     (DEG/KT/KT) (MB)    (MI)  (FT/S)
SOUTHERN BUOY              40 40   50/ 17/ 21 1015.2          5/ 5
HARRISON CRIB              43      40/ 19/ 20   N/A
BURNHAM HARBOR             43      20/ 12/ 18   N/A
CALUMET HARBOR             44      20/ 11/ 14 1012.3R
BURNS HARBOR               47        CALM     1012.9S
MICHIGAN CITY              45      80/  7/  8   N/A
MICHIGAN CITY 6N           46 47                N/A           4/ 7
ST. JOSEPH                 45 45  130/ 10/ 14 1013.4F         2/ 6
$$

ILZ025>027-034>036-040-047-049-050-058-095>099-301200-
WEST-CENTRAL ILLINOIS

CITY           SKY/WX    TMP DP  RH WIND       PRES   REMARKS
QUINCY         CLOUDY    46  46 100 E21G26    29.63F
GALESBURG*     CLOUDY    43  43 100 NE18G24   29.79F
MACOMB*        CLOUDY    46  46 100 E16       29.79F
JACKSONVILLE*  LGT RAIN  46  46  99 E14       29.76F
PITTSFIELD*    LGT RAIN  46  46  99 NE10      29.72F
$$

ILZ028>032-037-038-041>044-048-051>054-059>061-301200-
CENTRAL ILLINOIS

CITY           SKY/WX    TMP DP  RH WIND       PRES   REMARKS
PONTIAC        LGT RAIN  48  47  97 NE10      29.87F
BLOOMINGTON    LGT RAIN  48  48 100 N12       29.83F FOG
DECATUR        HVY RAIN  52  52 100 NE5       29.80F FOG
PEORIA         LGT RAIN  47  46  97 NE12      29.82F
LACON*         RAIN      45  45 100 NE8       29.86F
LINCOLN*       RAIN      49  49 100 N6        29.81F
SPRINGFIELD    RAIN      49  48  97 NE9       29.80F FOG
TAYLORVILLE    HVY RAIN  49  49  99 N3        29.81R
$$

ILZ033-039-045-046-055>057-062-063-301200-
EAST-CENTRAL ILLINOIS

CITY           SKY/WX    TMP DP  RH WIND       PRES   REMARKS
CHAMPAIGN      RAIN      56  55  97 NE7       29.81F FOG
RANTOUL*       RAIN      57  56  99 NE7       29.82F
MATTOON        RAIN      59  59 100 NE10      29.76F FOG
PARIS*         RAIN     N/A N/A N/A E3        29.81F
$$

ILZ079-100>102-301200-
SOUTHWEST ILLINOIS

CITY           SKY/WX    TMP DP  RH WIND       PRES   REMARKS
ALTON          LGT RAIN  49  49  98 NE7       29.76F
BELLEVILLE     LGT RAIN  54  54 100 NW5       29.79R
CAHOKIA*       LGT RAIN  53  51  93 E7        29.77F
$$

ILZ064>066-069>071-074>076-080>082-084>086-088>090-092>094-301200-
SOUTH-CENTRAL ILLINOIS

CITY           SKY/WX    TMP DP  RH WIND       PRES   REMARKS
CARBONDALE     RAIN      64  64 100 W5        29.78F FOG
CAIRO*         TSTM      64  64 100 S6        29.80S
EFFINGHAM*     HVY RAIN  62  62 100 E7        29.78S
MARION         RAIN      64  64 100 CALM      29.81S
MT. VERNON     LGT RAIN  63  62  97 SW10      29.80R
CENTRALIA*     LGT RAIN  63  63 100 CALM      29.77F
SALEM*         RAIN      64  62  94 SW6       29.80R
METROPOLIS*    CLOUDY    65  64  96 SE3       29.84R
$$

ILZ067-068-072-073-078-083-087-091-301200-
SOUTHEAST ILLINOIS

CITY           SKY/WX    TMP DP  RH WIND       PRES   REMARKS
LAWRENCEVILLE  LGT RAIN  65  63  93 SE8       29.79S
FLORA*         LGT RAIN N/A N/A N/A S12       29.78R
FAIRFIELD*     LGT RAIN  64  64 100 S7        29.79R
HARRISBURG*    LGT RAIN  64  63  97 W7        29.81F
ROBINSON*      LGT RAIN  63  62  98 SE6       29.79S
CARMI*         RAIN      65  64  96 S10       29.81R
$$

ABBREVIATIONS USED IN REMARKS
   TC - TEMPERATURE IN CELSIUS
  WCI - WIND CHILL INDEX
   HX - HEAT INDEX
  VSB - VISIBILITY
$$




USA.gov is the U.S. government's official web portal to all federal, state and local government web resources and services.